Location: Newark
(48.0000°N, 67.0000°E)
Time: 23:57:44
(UTC+00:00)

A-11 Canister half - Pass Details

Date: 25 February 2020
Orbit: 1516 x 1683 km, 47.2° (Epoch: 08 April)

Event Time Altitude Azimuth Distance (km) Brightness Sun altitude
Rises 16:55:06 0° 290° (WNW) 4,831 12.5 -37.2°
Reaches altitude 10° 16:58:28 10° 284° (WNW) 3,819 11.7 -37.7°
Enters shadow 17:06:55 41° 223° (SW) 2,149 9.6 -38.8°
